CRC

Crooked River Challenge - Loft Fly

Station: Inventory - T Race

Distance: 0.1 Miles    

Release: 22-May-2020 07:00

Weather Release:    Arrival:

Wind at Release:     Wind at Arrival:

Temp at Release: °    Temp at Arrival: °

Lofts: 191

Birds: 1038

Clocked: 1021

Good Luck to Everyone!
Drops Pos Breeder Pigeon Name Color Sex Ent Arrival Speed To Win Elg PdOpB
1 Arch Haven Loft - IN 2011-AU20-ARCH BB H 1 09:58:15.54 0.987 00:00:00 Yes
1 Genesis Syndicate Loft - AZ 0566-AU20-GEN BCSP C 1 09:58:22.87 0.987 00:00:00 Yes
3 Samuel A Miller - KY 0850-AU20-FOYS BB H 1 09:58:25.02 0.986 00:00:11 Yes
3 Christopher Loft - UT 20045-AU20-GS BBT H 1 09:58:30.46 0.986 00:00:11 Yes
3 Baldwin & Tillson - NC 0005-AU20-TENT KW-8102(1148) BB C 1 09:58:33.07 0.986 00:00:11 Yes
6 Tian Loft - FL 30141-AU20-ARPU BC H 1 09:58:37.52 0.985 00:00:22 Yes
6 Andrew E. Skwiat - IN 0002-AU20-ANDY BB C 1 09:58:40.01 0.985 00:00:22 Yes
6 Arandas Loft - TX 7797-AU20-JEDD BB H 1 09:58:41.90 0.985 00:00:22 Yes
6 B L U E M E G A N T I N L O F T - CA 0842-AU20-SFR CALIFORNIA GIRL BB H 1 09:58:42.27 0.985 00:00:22 Yes
6 Ganus Family Loft - IN 0828-AU20-GFL BB C 1 09:58:42.64 0.985 00:00:22 Yes
6 Cartel Morelia - TX 20740-AU20-SYV BC H 1 09:58:43.02 0.985 00:00:22 Yes
6 A P C Loft - TX 20138-AU20-APC BB C 1 09:58:43.84 0.985 00:00:22 Yes
6 PNWC - ID 1207-AU20-IDA “PAIR # J13” BC H 1 09:58:45.05 0.985 00:00:22 Yes
14 Wise Loft - IL 0007-AU20-WISE BB H 1 09:58:46.56 0.984 00:00:33 Yes
14 All Glory To God - NM 2534-AU20-ARPU BB C 1 09:58:47.60 0.984 00:00:33 Yes
14 Billy & Ray - CO 20229-AU20-PUEB BC C 1 09:58:47.63 0.984 00:00:33 Yes
14 AFL - GA 0088-IF20-AFL 999 GFL x 390 AFL BB C 1 09:58:48.67 0.984 00:00:33 Yes
14 8ge - PA 1527-IF20-ERIE BB C 1 09:58:49.69 0.984 00:00:33 Yes
14 Baldwin & Tillson - NC 0006-AU20-TENT KW-VICTORIA BB C 2 09:58:49.71 0.984 00:00:33 Yes
14 B.B.& W. - CA 20028-AU20-ARPU 03-04 /1 BB C 1 09:58:49.74 0.984 00:00:33 Yes
14 R & S Loft Of Tx - TX 0103-AU20-RS BB C 1 09:58:49.76 0.984 00:00:33 Yes
14 Greek Connection - SC 0127-AU20-GRK 1153 x GR BB H 2 09:58:49.77 0.984 00:00:33 Yes
14 Laszlo Zugor - CA 4327-AU20-SRP BB C 1 09:58:49.91 0.984 00:00:33 Yes
14 Linda Loft - PA 0733-IF20-LU 464-589 BC C 1 09:58:51.34 0.984 00:00:33 Yes
14 Sherwood Loft - UT 0206-AU20-NEBO BB C 1 09:58:52.38 0.984 00:00:33 Yes
14 Perez Family Loft - MN 0719-AU20-VIK BBSP C 1 09:58:52.43 0.984 00:00:33 Yes
14 Dfm#1 - MO 1437-IF20-BB BCWF H 1 09:58:52.80 0.984 00:00:33 Yes
14 PNWC - ID 0004-AU20-PNWC “PAIR# 23” BC H 2 09:58:53.82 0.984 00:00:33 Yes
14 Lin Family Loft - GA 8978-AU20-LIN 林 DV 1883 X Lin 1096 BB C 1 09:58:54.05 0.984 00:00:33 Yes
14 Genesis Syndicate Loft - AZ 0522-AU20-GEN BBSP H 2 09:58:55.06 0.984 00:00:33 Yes
14 Greek Connection - SC 0107-AU20-GRK Beast BB C 1 09:58:55.09 0.984 00:00:33 Yes
32 Aztec Loft - DE 0136-AU20-AZTC BB H 1 09:58:57.43 0.983 00:00:44 Yes
32 Wolf Den - IL 0112-AU20-WOLF BB H 1 09:58:58.46 0.983 00:00:44 Yes
32 Wtj Loft - TX 0756-AU20-GSWC 411 BC H 1 09:58:58.48 0.983 00:00:44 Yes
32 B.B.& W. - CA 20024-AU20-ARPU Left 4 /1 BC H 2 09:58:59.04 0.983 00:00:44 Yes
32 Lian Loft Vladimir 59 Perez - FL 2034-AU20-LIAN BBT H 1 09:59:00.09 0.983 00:00:44 Yes
32 Joe Atkinson - OR 14377-AU20-JEDD BVR Carl BGZ C 1 09:59:00.40 0.983 00:00:44 Yes
32 Iditarod Loft - MT 7504-AU20-AA BBSP H 1 09:59:01.48 0.983 00:00:44 Yes
32 Adams Loft - PA 0098-IF20-FSJ BB C 1 09:59:01.56 0.983 00:00:44 Yes
32 Chumash - CA 7279-AU20-JEDD BB H 1 09:59:01.65 0.983 00:00:44 Yes
32 Irishsyndicatelofts - AZ 1077-AU20-IRIS BCT H 1 09:59:02.67 0.983 00:00:44 Yes
32 John Gutierrez - NM 0209-AU20-GUTZ BC H 1 09:59:02.70 0.983 00:00:44 Yes
32 Andrew E. Skwiat - IN 0035-AU20-ANDY BBWF H 2 09:59:02.73 0.983 00:00:44 Yes
32 Pleasant Task Farm - PA 0035-AU20-PTF BC C 1 09:59:03.33 0.983 00:00:44 Yes
32 Eastern Pearl Loft - VA 0718-AU20-EPL 🈚️量718 BB C 1 09:59:04.36 0.983 00:00:44 Yes
32 Ganus Family Loft - IN 0812-AU20-GFL BBWF C 2 09:59:04.66 0.983 00:00:44 Yes
32 Thunder Birds/Rodriguez Breeding Loft - TX 27761-AU20-ARPU Can't Touch This! BB C 1 09:59:05.72 0.983 00:00:44 Yes
32 Kelly Ward - IN 0003-AU20-FAM BB C 1 09:59:07.28 0.983 00:00:44 Yes
49 S & J Platt - OR 18417-AU20-PLAT BB H 1 09:59:08.34 0.982 00:00:54 Yes
49 A-Lo Loft/Nemelka - UT 0001-AU20-ALOL ☯️385☯️ BB C 1 09:59:08.37 0.982 00:00:54 Yes
49 Christopher Loft - UT 20047-AU20-GS BB H 2 09:59:08.39 0.982 00:00:54 Yes
49 Swampdog DLG - MS 0093-IF20-SDOG 109x177 BB H 1 09:59:08.70 0.982 00:00:54 Yes
49 Lising Syndicate - CA 65412-AU20-ARPU BB H 1 09:59:09.41 0.982 00:00:54 Yes
49 Elton Dinga - TX 11012-AU20-AA Kruger 1905 x Purdy 12005 DC C 1 09:59:10.43 0.982 00:00:54 Yes
49 Sweeney's Flying Fortress - WI 3326-AU20-MWC BBPD H 2 09:59:10.45 0.982 00:00:54 Yes
49 Sherwood Loft - UT 0207-AU20-NEBO BB H 2 09:59:10.49 0.982 00:00:54 Yes
49 Nanez Family Loft - WI 0007-AU20-NANZ BB C 1 09:59:10.92 0.982 00:00:54 Yes
49 Ganus Family Loft - IN 0831-AU20-GFL BC C 3 09:59:11.94 0.982 00:00:54 Yes
49 John Gutierrez - NM 0232-AU20-GUTZ BB H 2 09:59:11.97 0.982 00:00:54 Yes
49 Sweeney's Flying Fortress - WI 3307-AU20-MWC BC H 1 09:59:11.99 0.982 00:00:54 Yes
49 Stallion - CA 65868-AU20-ARPU WGZ H 1 09:59:12.01 0.982 00:00:54 Yes
49 Iditarod Loft - MT 7530-AU20-AA BC H 2 09:59:12.09 0.982 00:00:54 Yes
49 S Procopoi Loft - GA 41822-AU20-ARPU BBWF C 1 09:59:13.11 0.982 00:00:54 Lost
49 Amer Loft - GA 0012-IF20-AFL 697 GFL x 849 GFL BB H 1 09:59:13.13 0.982 00:00:54 Yes
49 A-Lo Loft/Nemelka - UT 0060-AU20-NRPL Out of My Way BB C 2 09:59:13.15 0.982 00:00:54 Yes
49 Elton Dinga - TX 11015-AU20-AA Purdey 1286 x Purdey 1004 BC C 2 09:59:13.18 0.982 00:00:54 Yes
49 Tepa Sindicato - CA 0280-AU20-SG BC H 1 09:59:13.20 0.982 00:00:54 Yes
49 Ed Skwiat - IN 0121-AU20-GRK BBWF C 1 09:59:14.69 0.982 00:00:54 Yes
49 Tyler Loft - TX 6186-AU20-ARPU BB H 1 09:59:14.72 0.982 00:00:54 Yes
49 Baldwin & Tillson - NC 0004-AU20-TENT KW-8102(1148) BC C 3 09:59:14.75 0.982 00:00:54 Yes
49 S Procopoi Loft - GA 41861-AU20-ARPU BB H 2 09:59:15.02 0.982 00:00:54 Yes
49 Kolvenbag & Son - PA 1423-IF20-KOLV BC H 1 09:59:15.87 0.982 00:00:54 Yes
49 Ramirez Loft - TX 150619-MX20-FMC BB H 1 09:59:16.88 0.982 00:00:54 Yes
49 Pleasant Task Farm - PA 0015-AU20-PTF BB C 2 09:59:16.90 0.982 00:00:54 Yes
49 Greek Connection - SC 0117-AU20-GRK 640 BBSP H 3 09:59:16.92 0.982 00:00:54 Yes
49 Zheng Family Loft - NY 0996-AU20-ZFL Lamborghini 996 BC H 1 09:59:16.96 0.982 00:00:54 Yes
49 Do Drop In Loft - NC 0045-IF20-TRC Snowy River WT H 2 09:59:17.02 0.982 00:00:54 Yes
49 Wtj Loft - TX 0156-AU20-WTJ 21126🥞 BCWF H 2 09:59:17.36 0.982 00:00:54 Yes
49 Do Drop In Loft - NC 0031-IF20-TRC Jay BB C 1 09:59:18.38 0.982 00:00:54 Yes
49 Dekeratry Loft - TX 2526-AU20-HOT GZ H 1 09:59:18.40 0.982 00:00:54 Yes
81 Thunder Birds/Rodriguez Breeding Loft - TX 5450-AU20-JEDD AIC-DARK HORSE BB H 2 09:59:19.72 0.981 00:01:05 Yes
81 Q-Ba Family Loft - TX 20121-AU20-SAIN “Fast Ride” BBSP H 1 09:59:19.75 0.981 00:01:05 Yes
81 Sam Haslem - UT 0112-AU20-SAM BC H 1 09:59:19.78 0.981 00:01:05 Yes
81 Sterchi/Gragg - CA 0209-AU20-SIER BB C 1 09:59:19.95 0.981 00:01:05 Yes
81 Pastilla Loft - CA 14374-AU20-JEDD BKSP H 1 09:59:20.98 0.981 00:01:05 Yes
81 Baldwin & Tillson - NC 0008-AU20-TENT KW-585 BC H 4 09:59:21.00 0.981 00:01:05 Yes
81 Racing Pigeon Mall - WA 1009-AU20-RPM BB C 1 09:59:21.03 0.981 00:01:05 Yes
81 Xiao Loft - WI 3108-AU20-RAC BB H 1 09:59:21.12 0.981 00:01:05 Yes
81 Xiao Loft - WI 3118-AU20-RAC BB H 2 09:59:21.99 0.981 00:01:05 Yes
81 Zheng Family Loft - NY 0991-AU20-ZFL Bugatti 991 BBWF H 2 09:59:23.03 0.981 00:01:05 Yes
81 Ganus Family Loft - IN 0369-AU20-GFL BBWF H 4 09:59:23.05 0.981 00:01:05 Yes
81 Genesis Syndicate Loft - AZ 0523-AU20-GEN BCSP C 3 09:59:23.06 0.981 00:01:05 Yes
81 Pleasant Task Farm - PA 0009-AU20-PTF BBSP C 3 09:59:23.08 0.981 00:01:05 Yes
81 Swampdog DLG - MS 0096-IF20-SDOG 211x245 BBSP H 2 09:59:23.10 0.981 00:01:05 Yes
81 Y Mtn Loft - TN 26624-AU20-YMTN BBSP H 1 09:59:24.96 0.981 00:01:05 Lost
81 Sterchi/Gragg - CA 0274-AU20-SIER BCWF H 2 09:59:25.42 0.981 00:01:05 Yes
81 Poorhouse Road Loft - VA 22501-AU20-ARPU BB C 1 09:59:26.47 0.981 00:01:05 Yes
81 Yendez Loft - TX 0572-AU20-YEND YENDEZ 572 BB H 1 09:59:27.09 0.981 00:01:05 Yes
81 Dfm#1 - MO 1438-IF20-BB BC H 2 09:59:28.10 0.981 00:01:05 Yes
81 Sunshine Loft 2 - SC 0501-AU20-GRPC Pak 59-Pak 70 BC C 1 09:59:28.16 0.981 00:01:05 Yes

There are 1027 bird records

Note: These Race Results are unofficial and subject to change until verified by the Race Committee and declared final.